N282WB KICT-KAPA

Flight info

Callsign N282WB
Flight time 1h 15m
Altitude 43000
Route CAARS DUNNN DUNNN6
Aircraft C25B/M-SDE2E3FGHRWXY/LB1

Departure

Time 2026-04-25 18:56
Airport Wichita Dwight D. Eisenhower National Airport (KICT)

Arrival

Time 2026-04-25 20:11
Airport Centennial Airport (KAPA)
Time Latitude Longitude Altitude Speed Heading
2026-04-25 18:43 37.65778 -97.41539 1319 ft 0 kts 288°
2026-04-25 18:52 37.65779 -97.41571 1320 ft 9 kts 248°
2026-04-25 18:53 37.65749 -97.41602 1321 ft 0 kts 195°
2026-04-25 18:53 37.65747 -97.41603 1321 ft 4 kts 203°
2026-04-25 18:53 37.65667 -97.41656 1321 ft 17 kts 200°
2026-04-25 18:53 37.65553 -97.41708 1320 ft 18 kts 199°
2026-04-25 18:54 37.65525 -97.41824 1324 ft 7 kts 289°
2026-04-25 18:54 37.65545 -97.41879 1326 ft 8 kts 315°
2026-04-25 18:54 37.65611 -97.41872 1325 ft 13 kts 21°
2026-04-25 18:55 37.65716 -97.41818 1324 ft 19 kts 26°
2026-04-25 18:55 37.65828 -97.41694 1322 ft 24 kts 49°
2026-04-25 18:55 37.65971 -97.41581 1321 ft 24 kts 20°
2026-04-25 18:55 37.66094 -97.41592 1324 ft 17 kts 307°
2026-04-25 18:56 37.66136 -97.41728 1326 ft 17 kts 270°
2026-04-25 18:56 37.66002 -97.41841 1325 ft 54 kts 200°
2026-04-25 18:56 37.65263 -97.42186 1442 ft 160 kts 198°
2026-04-25 18:56 37.64095 -97.42719 2592 ft 194 kts 194°
2026-04-25 18:57 37.62765 -97.43343 4017 ft 221 kts 200°
2026-04-25 18:57 37.61278 -97.44163 5725 ft 231 kts 200°
2026-04-25 18:57 37.59873 -97.44926 7285 ft 216 kts 202°
2026-04-25 18:57 37.59035 -97.45652 7970 ft 226 kts 223°
2026-04-25 18:58 37.58429 -97.48241 9434 ft 248 kts 270°
2026-04-25 18:58 37.59890 -97.52334 11468 ft 263 kts 292°
2026-04-25 18:58 37.60806 -97.54434 11920 ft 288 kts 293°
2026-04-25 18:59 37.62885 -97.59281 12372 ft 336 kts 293°
2026-04-25 18:59 37.65088 -97.64456 13856 ft 336 kts 293°
2026-04-25 19:00 37.67163 -97.69744 15098 ft 334 kts 285°
2026-04-25 19:00 37.67739 -97.72582 15722 ft 330 kts 274°
2026-04-25 19:01 37.68025 -97.78314 16929 ft 330 kts 269°
2026-04-25 19:01 37.68211 -97.81220 17496 ft 333 kts 272°
2026-04-25 19:01 37.68518 -97.84133 18076 ft 334 kts 273°
2026-04-25 19:01 37.68779 -97.87042 18574 ft 336 kts 272°
2026-04-25 19:02 37.69248 -97.92929 19544 ft 339 kts 272°
2026-04-25 19:02 37.69505 -97.95910 20045 ft 341 kts 272°
2026-04-25 19:02 37.69753 -97.98873 20527 ft 343 kts 272°
2026-04-25 19:03 37.70170 -98.03895 21338 ft 346 kts 272°
2026-04-25 19:03 37.70502 -98.07941 21974 ft 348 kts 272°
2026-04-25 19:03 37.70756 -98.11003 22446 ft 350 kts 272°
2026-04-25 19:04 37.71259 -98.17153 23358 ft 354 kts 272°
2026-04-25 19:04 37.71511 -98.20231 23708 ft 356 kts 273°
2026-04-25 19:05 37.72019 -98.26491 24444 ft 358 kts 273°
2026-04-25 19:05 37.72522 -98.32733 25120 ft 360 kts 274°
2026-04-25 19:05 37.72772 -98.35896 25439 ft 361 kts 273°
2026-04-25 19:06 37.73029 -98.39058 25753 ft 362 kts 274°
2026-04-25 19:06 37.73535 -98.45426 26320 ft 365 kts 274°
2026-04-25 19:06 37.73781 -98.48594 26577 ft 366 kts 274°
2026-04-25 19:07 37.74289 -98.55048 27076 ft 369 kts 274°
2026-04-25 19:07 37.74543 -98.58245 27309 ft 370 kts 274°
2026-04-25 19:08 37.75045 -98.64691 28218 ft 359 kts 274°
2026-04-25 19:08 37.75277 -98.67722 29673 ft 335 kts 275°
2026-04-25 19:09 37.75963 -98.76621 30942 ft 344 kts 275°
2026-04-25 19:09 37.76115 -98.78629 31189 ft 345 kts 275°
2026-04-25 19:09 37.76654 -98.85744 32001 ft 351 kts 275°
2026-04-25 19:10 37.76888 -98.88793 32333 ft 353 kts 275°
2026-04-25 19:10 37.77118 -98.91901 32660 ft 354 kts 275°
2026-04-25 19:10 37.77354 -98.94996 32984 ft 356 kts 275°
2026-04-25 19:10 37.77587 -98.98145 33289 ft 358 kts 275°
2026-04-25 19:11 37.77820 -99.01244 33578 ft 359 kts 275°
2026-04-25 19:11 37.78052 -99.04397 33942 ft 358 kts 275°
2026-04-25 19:11 37.78287 -99.07545 34298 ft 357 kts 275°
2026-04-25 19:11 37.78513 -99.10629 34663 ft 355 kts 275°
2026-04-25 19:12 37.78743 -99.13750 35048 ft 353 kts 275°
2026-04-25 19:12 37.78966 -99.16797 35419 ft 352 kts 275°
2026-04-25 19:12 37.79190 -99.19890 35813 ft 350 kts 275°
2026-04-25 19:12 37.79414 -99.22944 36209 ft 348 kts 275°
2026-04-25 19:13 37.79632 -99.25979 36623 ft 347 kts 275°
2026-04-25 19:13 37.79854 -99.29035 37034 ft 346 kts 275°
2026-04-25 19:13 37.80068 -99.32047 37437 ft 345 kts 275°
2026-04-25 19:13 37.80287 -99.35074 37866 ft 344 kts 275°
2026-04-25 19:14 37.80499 -99.38051 38293 ft 342 kts 275°
2026-04-25 19:14 37.80572 -99.39067 38435 ft 342 kts 275°
2026-04-25 19:14 37.80925 -99.44053 38947 ft 342 kts 274°
2026-04-25 19:14 37.81137 -99.47069 39234 ft 343 kts 275°
2026-04-25 19:15 37.81347 -99.50045 39522 ft 344 kts 274°
2026-04-25 19:15 37.81560 -99.53078 39809 ft 344 kts 274°
2026-04-25 19:15 37.81769 -99.56087 40101 ft 345 kts 274°
2026-04-25 19:15 37.81979 -99.59094 40391 ft 345 kts 274°
2026-04-25 19:16 37.82187 -99.62115 40679 ft 346 kts 274°
2026-04-25 19:16 37.82399 -99.65169 40976 ft 347 kts 274°
2026-04-25 19:16 37.82606 -99.68193 41267 ft 347 kts 274°
2026-04-25 19:16 37.82815 -99.71248 41559 ft 348 kts 274°
2026-04-25 19:17 37.83023 -99.74267 41856 ft 348 kts 274°
2026-04-25 19:17 37.83231 -99.77348 42145 ft 349 kts 274°
2026-04-25 19:17 37.83438 -99.80395 42436 ft 349 kts 274°
2026-04-25 19:17 37.83645 -99.83478 42728 ft 350 kts 274°
2026-04-25 19:18 37.83851 -99.86537 42829 ft 352 kts 274°
2026-04-25 19:18 37.84260 -99.92667 42837 ft 345 kts 274°
2026-04-25 19:19 37.84658 -99.98659 42834 ft 340 kts 274°
2026-04-25 19:19 37.85048 -100.04586 42832 ft 336 kts 274°
2026-04-25 19:20 37.85431 -100.10448 42823 ft 333 kts 274°
2026-04-25 19:20 37.85807 -100.16259 42812 ft 331 kts 274°
2026-04-25 19:21 37.86178 -100.22042 42805 ft 329 kts 274°
2026-04-25 19:21 37.86728 -100.30673 42793 ft 327 kts 274°
2026-04-25 19:22 37.87088 -100.36400 42800 ft 326 kts 274°
2026-04-25 19:23 37.87625 -100.44979 42813 ft 325 kts 274°
2026-04-25 19:23 37.88152 -100.53522 42838 ft 325 kts 274°
2026-04-25 19:24 37.88499 -100.59231 42846 ft 324 kts 274°
2026-04-25 19:25 37.89185 -100.70607 42852 ft 324 kts 274°
2026-04-25 19:25 37.89522 -100.76258 42854 ft 324 kts 274°
2026-04-25 19:26 37.89862 -100.81973 42852 ft 324 kts 273°
2026-04-25 19:26 37.90193 -100.87626 42848 ft 323 kts 273°
2026-04-25 19:27 37.90414 -100.91427 42844 ft 323 kts 273°
2026-04-25 19:27 37.90851 -100.99001 42835 ft 323 kts 273°
2026-04-25 19:28 37.91174 -101.04633 42825 ft 323 kts 273°
2026-04-25 19:28 37.91495 -101.10316 42817 ft 323 kts 273°
2026-04-25 19:29 37.91815 -101.15995 42812 ft 323 kts 273°
2026-04-25 19:29 37.92131 -101.21657 42813 ft 323 kts 273°
2026-04-25 19:30 37.92443 -101.27323 42818 ft 323 kts 273°
2026-04-25 19:30 37.92753 -101.32992 42825 ft 323 kts 273°
2026-04-25 19:31 37.93061 -101.38656 42826 ft 323 kts 273°
2026-04-25 19:31 37.93367 -101.44328 42825 ft 323 kts 273°
2026-04-25 19:32 37.93669 -101.50004 42818 ft 323 kts 273°
2026-04-25 19:32 37.93870 -101.53783 42815 ft 323 kts 273°
2026-04-25 19:33 37.94267 -101.61362 42820 ft 323 kts 273°
2026-04-25 19:33 37.94562 -101.67037 42822 ft 323 kts 273°
2026-04-25 19:34 37.94852 -101.72699 42825 ft 323 kts 273°
2026-04-25 19:34 37.95141 -101.78386 42823 ft 323 kts 273°
2026-04-25 19:35 37.95426 -101.84036 42825 ft 322 kts 273°
2026-04-25 19:35 37.95710 -101.89706 42820 ft 323 kts 273°
2026-04-25 19:36 37.95990 -101.95374 42820 ft 322 kts 273°
2026-04-25 19:36 37.96266 -102.01038 42826 ft 322 kts 272°
2026-04-25 19:37 37.96540 -102.06703 42825 ft 322 kts 272°
2026-04-25 19:37 37.96816 -102.12400 42821 ft 322 kts 272°
2026-04-25 19:38 37.97083 -102.18049 42827 ft 322 kts 272°
2026-04-25 19:38 37.97349 -102.23710 42827 ft 322 kts 272°
2026-04-25 19:39 37.97612 -102.29374 42837 ft 322 kts 272°
2026-04-25 19:39 37.97831 -102.34114 42855 ft 322 kts 272°
2026-04-25 19:40 37.98133 -102.40710 42873 ft 322 kts 272°
2026-04-25 19:40 37.98347 -102.45454 42889 ft 322 kts 272°
2026-04-25 19:41 37.98599 -102.51118 42902 ft 322 kts 272°
2026-04-25 19:41 37.98808 -102.55825 42917 ft 322 kts 272°
2026-04-25 19:42 37.99097 -102.62458 42930 ft 322 kts 272°
2026-04-25 19:42 37.99342 -102.68090 42939 ft 322 kts 272°
2026-04-25 19:43 37.99585 -102.73762 42934 ft 321 kts 272°
2026-04-25 19:43 37.99822 -102.79401 42928 ft 321 kts 272°
2026-04-25 19:44 38.00059 -102.85088 42911 ft 321 kts 272°
2026-04-25 19:44 38.00178 -102.87909 42704 ft 326 kts 272°
2026-04-25 19:44 38.00451 -102.90814 42273 ft 336 kts 278°
2026-04-25 19:45 38.01012 -102.93685 41822 ft 342 kts 284°
2026-04-25 19:45 38.01867 -102.96494 41361 ft 338 kts 290°
2026-04-25 19:45 38.02982 -102.99126 40909 ft 336 kts 296°
2026-04-25 19:45 38.04317 -103.01513 40461 ft 335 kts 302°
2026-04-25 19:46 38.05896 -103.03707 40017 ft 336 kts 308°
2026-04-25 19:46 38.07594 -103.05625 39588 ft 335 kts 310°
2026-04-25 19:46 38.09307 -103.07640 39132 ft 328 kts 307°
2026-04-25 19:46 38.10942 -103.09627 38704 ft 325 kts 307°
2026-04-25 19:47 38.12495 -103.11685 38239 ft 318 kts 304°
2026-04-25 19:47 38.14128 -103.13654 37808 ft 325 kts 309°
2026-04-25 19:47 38.15761 -103.15612 37384 ft 330 kts 308°
2026-04-25 19:47 38.17482 -103.17598 36947 ft 337 kts 310°
2026-04-25 19:48 38.19293 -103.19574 36497 ft 343 kts 310°
2026-04-25 19:48 38.21089 -103.21548 36050 ft 346 kts 310°
2026-04-25 19:48 38.22902 -103.23594 35589 ft 349 kts 309°
2026-04-25 19:48 38.24736 -103.25660 35124 ft 352 kts 309°
2026-04-25 19:49 38.26559 -103.27700 34669 ft 354 kts 310°
2026-04-25 19:49 38.27815 -103.29101 34342 ft 355 kts 309°
2026-04-25 19:49 38.30268 -103.31854 33698 ft 357 kts 309°
2026-04-25 19:49 38.32145 -103.33964 33205 ft 356 kts 309°
2026-04-25 19:50 38.35840 -103.38118 32258 ft 353 kts 310°
2026-04-25 19:50 38.37685 -103.40189 31788 ft 352 kts 310°
2026-04-25 19:50 38.39505 -103.42245 31322 ft 351 kts 310°
2026-04-25 19:51 38.41326 -103.44293 30859 ft 350 kts 310°
2026-04-25 19:51 38.43159 -103.46364 30397 ft 349 kts 310°
2026-04-25 19:51 38.44987 -103.48423 29927 ft 349 kts 310°
2026-04-25 19:51 38.46783 -103.50455 29449 ft 347 kts 310°
2026-04-25 19:52 38.48602 -103.52507 28982 ft 345 kts 311°
2026-04-25 19:52 38.50380 -103.54522 28534 ft 344 kts 311°
2026-04-25 19:52 38.52159 -103.56532 28087 ft 343 kts 311°
2026-04-25 19:52 38.53955 -103.58569 27636 ft 343 kts 311°
2026-04-25 19:53 38.55746 -103.60597 27185 ft 343 kts 311°
2026-04-25 19:53 38.57512 -103.62602 26736 ft 343 kts 311°
2026-04-25 19:53 38.59301 -103.64631 26287 ft 343 kts 311°
2026-04-25 19:53 38.61079 -103.66652 25836 ft 344 kts 311°
2026-04-25 19:54 38.62878 -103.68695 25380 ft 345 kts 312°
2026-04-25 19:54 38.64683 -103.70750 24925 ft 346 kts 312°
2026-04-25 19:54 38.66472 -103.72784 24475 ft 347 kts 312°
2026-04-25 19:54 38.67670 -103.74147 24177 ft 347 kts 312°
2026-04-25 19:55 38.70073 -103.76887 23568 ft 349 kts 313°
2026-04-25 19:55 38.71896 -103.78969 23067 ft 350 kts 313°
2026-04-25 19:55 38.73719 -103.81043 22602 ft 349 kts 313°
2026-04-25 19:55 38.75508 -103.83091 22140 ft 348 kts 313°
2026-04-25 19:56 38.77329 -103.85171 21688 ft 348 kts 313°
2026-04-25 19:56 38.79128 -103.87228 21231 ft 347 kts 313°
2026-04-25 19:56 38.80915 -103.89273 20782 ft 347 kts 314°
2026-04-25 19:56 38.82729 -103.91351 20318 ft 347 kts 313°
2026-04-25 19:57 38.84514 -103.93401 19865 ft 347 kts 314°
2026-04-25 19:57 38.86358 -103.95421 19409 ft 349 kts 319°
2026-04-25 19:57 38.88433 -103.97097 18950 ft 350 kts 324°
2026-04-25 19:57 38.90454 -103.98816 18498 ft 350 kts 322°
2026-04-25 19:58 38.92345 -104.00771 18013 ft 346 kts 312°
2026-04-25 19:58 38.93969 -104.03006 17656 ft 341 kts 309°
2026-04-25 19:58 38.95506 -104.05266 17545 ft 324 kts 307°
2026-04-25 19:58 38.96975 -104.07476 16311 ft 336 kts 307°
2026-04-25 19:59 38.98465 -104.09763 15649 ft 327 kts 307°
2026-04-25 19:59 38.99910 -104.11988 14871 ft 325 kts 307°
2026-04-25 19:59 39.01350 -104.14229 14142 ft 322 kts 307°
2026-04-25 19:59 39.02757 -104.16436 13521 ft 317 kts 307°
2026-04-25 20:00 39.04101 -104.18545 13401 ft 293 kts 307°
2026-04-25 20:00 39.04955 -104.19886 12941 ft 291 kts 307°
2026-04-25 20:00 39.06672 -104.22572 12075 ft 291 kts 307°
2026-04-25 20:00 39.07943 -104.24584 11459 ft 291 kts 307°
2026-04-25 20:01 39.10480 -104.28614 10337 ft 290 kts 307°
2026-04-25 20:01 39.11756 -104.30636 9798 ft 289 kts 307°
2026-04-25 20:01 39.13026 -104.32668 9236 ft 289 kts 307°
2026-04-25 20:02 39.14259 -104.34651 8957 ft 277 kts 307°
2026-04-25 20:02 39.15439 -104.36563 8957 ft 270 kts 307°
2026-04-25 20:02 39.16618 -104.38476 8940 ft 276 kts 307°
2026-04-25 20:02 39.17827 -104.40439 8957 ft 285 kts 307°
2026-04-25 20:03 39.19051 -104.42444 8961 ft 287 kts 307°
2026-04-25 20:03 39.20291 -104.44468 8952 ft 286 kts 307°
2026-04-25 20:03 39.21515 -104.46465 8945 ft 286 kts 307°
2026-04-25 20:03 39.22745 -104.48470 8956 ft 286 kts 307°
2026-04-25 20:04 39.23995 -104.50495 8953 ft 285 kts 307°
2026-04-25 20:04 39.25228 -104.52475 8939 ft 285 kts 307°
2026-04-25 20:04 39.26464 -104.54469 8951 ft 284 kts 307°
2026-04-25 20:04 39.27707 -104.56491 8953 ft 288 kts 307°
2026-04-25 20:05 39.28960 -104.58522 8941 ft 292 kts 307°
2026-04-25 20:05 39.30226 -104.60590 8955 ft 293 kts 307°
2026-04-25 20:05 39.31481 -104.62632 8959 ft 292 kts 307°
2026-04-25 20:05 39.32719 -104.64653 8960 ft 287 kts 308°
2026-04-25 20:06 39.33935 -104.66648 8968 ft 285 kts 307°
2026-04-25 20:06 39.35156 -104.68634 8986 ft 280 kts 307°
2026-04-25 20:06 39.36366 -104.70617 8951 ft 278 kts 308°
2026-04-25 20:06 39.37575 -104.72583 8969 ft 280 kts 308°
2026-04-25 20:07 39.38777 -104.74529 8921 ft 282 kts 308°
2026-04-25 20:07 39.39993 -104.76508 8868 ft 278 kts 307°
2026-04-25 20:07 39.41201 -104.78473 8620 ft 279 kts 308°
2026-04-25 20:07 39.42397 -104.80433 8405 ft 276 kts 307°
2026-04-25 20:08 39.43577 -104.82384 7998 ft 272 kts 307°
2026-04-25 20:08 39.44726 -104.84284 7760 ft 258 kts 308°
2026-04-25 20:08 39.45790 -104.85965 7722 ft 232 kts 316°
2026-04-25 20:08 39.47171 -104.86679 7655 ft 203 kts
2026-04-25 20:09 39.48371 -104.86137 7404 ft 164 kts 29°
2026-04-25 20:09 39.49220 -104.85568 7299 ft 128 kts 31°
2026-04-25 20:09 39.50049 -104.85113 6997 ft 127 kts 22°
2026-04-25 20:09 39.50923 -104.84872 6853 ft 129 kts
2026-04-25 20:10 39.51816 -104.84854 6683 ft 127 kts
2026-04-25 20:10 39.52680 -104.84891 6526 ft 123 kts
2026-04-25 20:10 39.53535 -104.84930 6335 ft 123 kts
2026-04-25 20:10 39.54378 -104.84962 6154 ft 119 kts
2026-04-25 20:11 39.55177 -104.85001 6016 ft 115 kts
2026-04-25 20:11 39.55964 -104.85038 5893 ft 105 kts
2026-04-25 20:11 39.56624 -104.85055 5853 ft 83 kts
2026-04-25 20:11 39.56926 -104.85075 5848 ft 22 kts 349°
2026-04-25 20:12 39.57049 -104.85089 5846 ft 20 kts
2026-04-25 20:12 39.57181 -104.85079 5843 ft 16 kts 12°
2026-04-25 20:12 39.57305 -104.85019 5840 ft 18 kts 28°
2026-04-25 20:12 39.57340 -104.84993 5839 ft 16 kts 28°
2026-04-25 20:13 39.57358 -104.84981 5838 ft 0 kts 27°
2026-04-25 20:13 39.57358 -104.84980 5838 ft 1 kts 27°
2026-04-25 20:14 39.57428 -104.84962 5834 ft 15 kts 356°
2026-04-25 20:14 39.57552 -104.84966 5826 ft 21 kts 359°
2026-04-25 20:14 39.57701 -104.84974 5823 ft 20 kts 358°
2026-04-25 20:14 39.57850 -104.84981 5811 ft 20 kts 357°
2026-04-25 20:15 39.58006 -104.84987 5806 ft 23 kts 358°
2026-04-25 20:15 39.58066 -104.84983 5806 ft 3 kts 45°
2026-04-25 20:15 39.58074 -104.84948 5806 ft 5 kts 87°
2026-04-25 20:15 39.58075 -104.84894 5806 ft 7 kts 87°
2026-04-25 20:16 39.58099 -104.84840 5806 ft 8 kts 54°
2026-04-25 20:16 39.58092 -104.84767 5806 ft 9 kts 154°
2026-04-25 20:16 39.58060 -104.84765 5805 ft 0 kts 180°